Location: Newark
(35.5300°N, 14.3000°E)
Time: 12:46:57
(UTC+00:00)

Transit 4A - Pass Details

Date: 30 November 2019
Orbit: 871 x 973 km, 66.8° (Epoch: 17 January)

Event Time Altitude Azimuth Distance (km) Brightness Sun altitude
Rises 16:48:26 0° 173° (S) 3,632 11.1 -11.8°
Reaches altitude 10° 16:51:23 10° 162° (SSE) 2,678 10.3 -12.4°
Maximum altitude 16:56:28 27° 107° (ESE) 1,740 8.9 -13.4°
Enters shadow 16:59:16 19° 69° (ENE) 2,062 9.1 -13.9°
